This is the latest recevied weather packets stored in our database for station/object K1TTC. If no packets are shown the sender has not sent any weather packets the latest 10 day(s).
| Time | Temp. | Humidity | Pressure | Rain* | Wind** | Luminosity | Snow |
|---|---|---|---|---|---|---|---|
| 1777552576 | 7.78° C | 85% | 1009.6 hPa | 0 mm | - | 105 W/m² | - |
| 1777551377 | 7.78° C | 85% | 1009.8 hPa | 0 mm | - | 121 W/m² | - |
| 1777550778 | 7.78° C | 84% | 1009.9 hPa | 0 mm | - | 62 W/m² | - |
| 1777550170 | 7.78° C | 84% | 1010 hPa | 0 mm | - | 33 W/m² | - |
| 1777548371 | 7.78° C | 84% | 1009.3 hPa | 0 mm | - | 53 W/m² | - |
| 1777547770 | 7.78° C | 84% | 1009.3 hPa | 0 mm | - | 62 W/m² | - |
| 1777547171 | 7.78° C | 83% | 1009.3 hPa | 0 mm | - | 56 W/m² | - |
| 1777545974 | 7.78° C | 83% | 1009.4 hPa | 0.25 mm | - | 33 W/m² | - |
| 1777545373 | 7.78° C | 83% | 1009.6 hPa | 0.51 mm | - | 14 W/m² | - |
| 1777544765 | 7.78° C | 83% | 1009.7 hPa | 0.51 mm | - | 14 W/m² | - |
| 1777544162 | 7.78° C | 82% | 1009.6 hPa | 0.76 mm | - | 12 W/m² | - |
| 1777543563 | 7.22° C | 82% | 1009.6 hPa | 0.76 mm | - | 9 W/m² | - |
| 1777542962 | 7.22° C | 82% | 1009.6 hPa | 0.76 mm | - | 0 W/m² | - |
| 1777542362 | 7.22° C | 82% | 1009.6 hPa | 0.51 mm | - | 0 W/m² | - |
| 1777541762 | 7.22° C | 82% | 1009.7 hPa | 0.25 mm | - | 0 W/m² | - |
| 1777541161 | 7.22° C | 82% | 1009.4 hPa | 0.25 mm | - | 0 W/m² | - |
| 1777540561 | 7.78° C | 82% | 1009.6 hPa | 0 mm | - | 0 W/m² | - |
| 1777539961 | 7.78° C | 82% | 1009.7 hPa | 0 mm | - | 0 W/m² | - |
| 1777539361 | 7.78° C | 81% | 1009.8 hPa | 0 mm | - | 0 W/m² | - |
| 1777539035 | 7.78° C | 81% | 1010 hPa | 0 mm | - | 0 W/m² | - |
| 1777538761 | 7.78° C | 81% | 1010 hPa | 0 mm | - | 0 W/m² | - |
| 1777538158 | 7.78° C | 81% | 1010.1 hPa | 0.25 mm | - | 0 W/m² | - |
| 1777537601 | 7.78° C | 81% | 1010.3 hPa | 0.25 mm | - | 0 W/m² | - |
| 1777536958 | 7.22° C | 81% | 1010.4 hPa | 0.25 mm | - | 0 W/m² | - |
| 1777536360 | 7.22° C | 81% | 1010.5 hPa | 0.25 mm | - | 0 W/m² | - |
* Rain latest hour (hover to see other rain measurements)
** Current wind speed in m/s (hover to see current wind gust speed)